{"data":{"norad_id":52467,"epoch":"2026-05-25T04:08:05.743680Z","epoch_age_seconds":59835,"freshness":"FRESH","line1":"1 52467U 22049S   26145.17228870  .00000309  00000+0  37534-4 0  9991","line2":"2 52467  53.2139  75.7762 0001176  65.8741 294.2374 15.08835028223793","mean_motion":15.08835028,"eccentricity":0.0001176,"inclination_deg":53.2139,"raan_deg":75.7762,"arg_perigee_deg":65.8741,"mean_anomaly_deg":294.2374,"bstar":3.7534e-5,"rev_number":22379,"period_min":95.437869169087,"perigee_km":538.94504189979,"apogee_km":540.57213094172,"semimajor_km":6917.8955864208,"source":"CELESTRAK","updated_at":"2026-05-25T13:38:17.151527Z"}}